User: anonymous   Login
Location: ???????
(55.4362°N, 38.1183°E)
Time: 02:24:18
(UTC+00:00)
Language:

EO-88 - Orbit

View from above orbital plane
View from above orbital plane
View from above satellite
View from above satellite

Ground track
Ground track

The orbit data is extracted from the following two-line orbital elements,

1 42017U 17008BX  21332.13465337  .00004462  00000-0  15864-3 0  9996
2 42017  97.2983  36.7565 0004342 237.5545 122.5276 15.29496052266260
Epoch (UTC): 28 November 2021 03:13:54
Eccentricity: 0.0004342
inclination: 97.2983°
perigee height: 474 km
apogee height: 480 km
right ascension of ascending node: 36.7565°
argument of perigee: 237.5545°
revolutions per day: 15.29496052
mean anomaly at epoch: 122.5276°
orbit number at epoch: 26626

The dashed part of the orbit path shows where the satellite is in the earth's shadow,  

DLR